User: anonymous   Login
Location: Unspecified
(0.0000°N, 0.0000°E)
Time: 01:03:09
(UTC+00:00)
Language:

TBA - TO BE ASSIGNED - Orbit

View from above orbital plane
View from above orbital plane
View from above satellite
View from above satellite

Ground track
Ground track

The orbit is defined by the following mean orbital elements,

1 68646U          26144.79814617 +.00000000 +00000-0 -29898+1 0 00000
2 68646  88.9877 323.4013 0004096 138.7087 221.4380 13.60932334    02
Epoch (UTC): 24 May 2026 19:09:19
Eccentricity: 0.0004096
inclination: 88.9877°
perigee height: 1029 km
apogee height: 1035 km
right ascension of ascending node: 323.4013°
argument of perigee: 138.7087°
revolutions per day: 13.60932334
mean anomaly at epoch: 221.4380°

The dashed part of the orbit path shows where the satellite is in the earth's shadow,  

DLR